Location: Most
(50.5133°N, 13.6207°E)
Time: 13:16:50
(UTC+02:00)

Nauka - Visible Passes

Search period start: 18 September 2021 00:00
Search period end: 28 September 2021 00:00
Orbit: 419 x 423 km, 51.6° (Epoch: 17 September)

Date Brightness Start Highest point End Pass type
(mag) Time Alt. Az. Time Alt. Az. Time Alt. Az.
18 Sep ? 20:53:08 10° SW 20:56:21 43° SSE 20:56:29 43° SE visible
19 Sep ? 20:06:32 10° SSW 20:09:33 31° SSE 20:11:43 16° E visible
19 Sep ? 21:42:50 10° WSW 21:44:44 31° W 21:44:44 31° W visible
20 Sep ? 20:55:56 10° WSW 20:59:18 78° SSE 20:59:50 59° E visible
21 Sep ? 20:09:06 10° WSW 20:12:26 61° SSE 20:14:51 17° E visible
21 Sep ? 21:45:56 10° W 21:47:51 31° W 21:47:51 31° W visible
22 Sep ? 20:58:59 10° W 21:02:22 75° N 21:02:47 63° NE visible
23 Sep ? 20:12:03 10° WSW 20:15:26 85° NNW 20:17:40 20° ENE visible
23 Sep ? 21:49:01 10° W 21:50:39 26° WNW 21:50:39 26° WNW visible
24 Sep ? 21:02:04 10° W 21:05:27 71° N 21:05:29 71° N visible
25 Sep ? 20:15:07 10° W 20:18:30 71° N 20:20:19 25° ENE visible
25 Sep ? 21:52:02 10° WNW 21:53:18 21° WNW 21:53:18 21° WNW visible
26 Sep ? 19:28:09 10° W 19:31:32 75° N 19:34:55 10° E visible
26 Sep ? 21:05:07 10° WNW 21:08:06 68° WNW 21:08:06 68° WNW visible
27 Sep ? 20:18:10 10° WNW 20:21:33 77° N 20:22:55 33° E visible
27 Sep ? 21:55:05 10° W 21:55:54 16° W 21:55:54 16° W visible
